Weather History for Alexandria, LA

Change the Weather History Date:

Monday, December 31, 2001

  Actual Average Record
Temperature  
Mean Temperature 40 °F 49 °F  
Max Temperature 45 °F 59 °F 81 °F (1984)
Min Temperature 34 °F 39 °F 13 °F (1983)
Degree Days  
Heating Degree Days 26 16  
Month to date heating degree days 465  
Since 1 July heating degree days 789  
Moisture  
Dew Point 27 °F    
Average Humidity 66    
Maximum Humidity 76    
Minimum Humidity 52    
Precipitation  
Precipitation 0.00 in 0.13 in 2.39 in (1911)
Month to date precipitation 6.12  
Year to date precipitation 55.92  
Snow  
Snow 0.00 in - 0.00 in ()
Month to date snowfall  
Since 1 July snowfall  
Snow Depth -    
Sea Level Pressure  
Sea Level Pressure 30.28 in    
Wind  
Wind Speed 7 mph (NNE)    
Max Wind Speed 12 mph    
Max Gust Speed -    
Visibility 10 miles    
Events Rain    
T = Trace of Precipitation, MM = Missing Value Source: NWS Daily Summary

Daily Weather History Graph

Daily Weather History Graph

Search for Another Location

Airport:

Trip Planner

Search our weather history database for the weather conditions in past years. The results will help you decide how hot, cold, wet, or windy it might be!

Date:

Astronomy

Dec. 31, 2001 Rise Set
Actual Time 7:09 AM CST 5:17 PM CST
Civil Twilight 6:42 AM CST 5:44 PM CST
Nautical Twilight 6:12 AM CST 6:14 PM CST
Astronomical Twilight 5:42 AM CST 6:44 PM CST
Moon 6:48 PM CST (12/31) 8:21 AM CST (12/31)
Length of Visible Light 11h 02m
Length of Day
10h 08m
Full, 98% of the Moon is Illuminated
Dec 31
Full
Jan 5
Last Quarter
Jan 13
New
Jan 21
First Quarter
Jan 28
Full

Hourly Weather History & Observations

Time (CST) Temp. Windchill Dew Point Humidity Pressure Visibility Wind Dir Wind Speed Gust Speed Precip Events Conditions
12:53 AM 36.0 °F 29.6 °F 25.0 °F 64% 30.30 in 10.0 mi NNE 8.1 mph - N/A   Mostly Cloudy
1:53 AM 36.0 °F 29.6 °F 24.1 °F 62% 30.29 in 10.0 mi NNE 8.1 mph - N/A   Scattered Clouds
2:53 AM 36.0 °F 31.1 °F 24.1 °F 62% 30.30 in 10.0 mi North 5.8 mph - N/A   Overcast
3:53 AM 35.1 °F 28.6 °F 26.1 °F 70% 30.29 in 10.0 mi NNE 8.1 mph - 0.00 in   Overcast
4:53 AM 34.0 °F 25.5 °F 25.0 °F 70% 30.28 in 10.0 mi NNE 11.5 mph - 0.00 in Rain Light Rain
5:53 AM 34.0 °F 28.8 °F 26.1 °F 73% 30.29 in 10.0 mi North 5.8 mph - 0.00 in   Overcast
6:53 AM 34.0 °F 28.8 °F 26.1 °F 73% 30.30 in 10.0 mi NNE 5.8 mph - 0.00 in   Overcast
7:53 AM 34.0 °F 27.2 °F 25.0 °F 70% 30.32 in 10.0 mi North 8.1 mph - N/A   Overcast
8:53 AM 35.1 °F 29.3 °F 25.0 °F 67% 30.36 in 10.0 mi Variable 6.9 mph - N/A   Overcast
9:53 AM 36.0 °F 28.5 °F 25.0 °F 64% 30.35 in 10.0 mi NNE 10.4 mph - N/A   Overcast
10:53 AM 37.0 °F 31.0 °F 25.0 °F 62% 30.33 in 10.0 mi NNE 8.1 mph - N/A   Overcast
11:53 AM 37.9 °F 33.5 °F 26.1 °F 62% 30.29 in 10.0 mi NNE 5.8 mph - N/A   Overcast
12:53 PM 39.0 °F 32.8 °F 26.1 °F 60% 30.26 in 10.0 mi NNE 9.2 mph - N/A   Overcast
1:53 PM 43.0 °F 41.3 °F 28.0 °F 56% 30.23 in 10.0 mi Variable 3.5 mph - N/A   Clear
2:53 PM 44.1 °F 40.8 °F 28.0 °F 53% 30.22 in 10.0 mi East 5.8 mph - N/A   Clear
3:53 PM 45.0 °F 39.3 °F 28.0 °F 52% 30.22 in 10.0 mi NE 11.5 mph - N/A   Clear
4:53 PM 43.0 °F 38.8 °F 28.9 °F 58% 30.23 in 10.0 mi NE 6.9 mph - N/A   Scattered Clouds
5:53 PM 41.0 °F 35.2 °F 28.0 °F 60% 30.24 in 10.0 mi NNE 9.2 mph - N/A   Mostly Cloudy
6:53 PM 37.9 °F 32.7 °F 28.0 °F 68% 30.25 in 10.0 mi NE 6.9 mph - N/A   Clear
7:53 PM 37.0 °F 33.3 °F 28.0 °F 70% 30.26 in 10.0 mi ENE 4.6 mph - N/A   Partly Cloudy
8:53 PM 36.0 °F 32.1 °F 28.0 °F 73% 30.26 in 10.0 mi NE 4.6 mph - N/A   Mostly Cloudy
9:53 PM 36.0 °F - 28.0 °F 73% 30.27 in 10.0 mi Calm Calm - N/A   Clear
10:53 PM 35.1 °F 30.1 °F 28.0 °F 76% 30.27 in 10.0 mi North 5.8 mph - N/A   Clear
11:53 PM 34.0 °F 28.8 °F 27.0 °F 75% 30.27 in 10.0 mi NNE 5.8 mph - N/A   Clear